TimeCDT,TemperatureF,Dew PointF,Humidity,Sea Level PressureIn,VisibilityMPH,Wind Direction,Wind SpeedMPH,Gust SpeedMPH,PrecipitationIn,Events,Conditions,WindDirDegrees,DateUTC
12:52 AM,54.0,48.0,80,30.08,10.0,Calm,Calm,-,N/A,,Clear,0,2013-06-04 05:52:00
1:52 AM,50.0,46.9,89,30.07,10.0,ESE,4.6,-,N/A,,Clear,120,2013-06-04 06:52:00
2:52 AM,54.0,46.9,77,30.08,10.0,Calm,Calm,-,N/A,,Clear,0,2013-06-04 07:52:00
3:52 AM,53.1,46.0,77,30.10,10.0,East,3.5,-,N/A,,Clear,90,2013-06-04 08:52:00
4:52 AM,48.0,44.1,86,30.08,10.0,East,5.8,-,N/A,,Clear,100,2013-06-04 09:52:00
5:52 AM,51.1,46.0,83,30.07,10.0,East,8.1,-,N/A,,Clear,90,2013-06-04 10:52:00
6:52 AM,55.9,46.9,72,30.07,10.0,SE,5.8,-,N/A,,Clear,130,2013-06-04 11:52:00
7:52 AM,60.1,48.0,64,30.09,10.0,SE,9.2,-,N/A,,Clear,140,2013-06-04 12:52:00
8:52 AM,64.0,48.0,56,30.12,10.0,SE,11.5,-,N/A,,Clear,140,2013-06-04 13:52:00
9:52 AM,66.9,48.0,51,30.14,10.0,ESE,6.9,-,N/A,,Clear,110,2013-06-04 14:52:00
10:52 AM,68.0,48.0,49,30.13,10.0,SE,9.2,-,N/A,,Clear,130,2013-06-04 15:52:00
11:52 AM,69.1,48.0,47,30.14,10.0,SSE,6.9,-,N/A,,Clear,160,2013-06-04 16:52:00
12:52 PM,70.0,48.9,47,30.10,10.0,ESE,8.1,-,N/A,,Clear,120,2013-06-04 17:52:00
1:52 PM,70.0,48.9,47,30.07,10.0,SE,13.8,-,N/A,,Clear,130,2013-06-04 18:52:00
2:52 PM,72.0,51.1,48,30.03,10.0,ESE,18.4,25.3,N/A,,Clear,110,2013-06-04 19:52:00
3:52 PM,73.0,52.0,48,30.05,10.0,ESE,8.1,-,N/A,,Mostly Cloudy,120,2013-06-04 20:52:00
4:52 PM,71.1,48.9,45,30.04,10.0,SE,11.5,-,N/A,,Scattered Clouds,130,2013-06-04 21:52:00
5:52 PM,70.0,48.9,47,30.03,10.0,SSE,12.7,-,N/A,,Mostly Cloudy,150,2013-06-04 22:52:00
6:52 PM,69.1,51.1,53,30.03,10.0,ESE,6.9,-,N/A,,Scattered Clouds,120,2013-06-04 23:52:00
7:52 PM,68.0,51.1,55,30.01,10.0,ESE,8.1,-,N/A,,Mostly Cloudy,110,2013-06-05 00:52:00
8:52 PM,64.9,54.0,68,30.03,10.0,ESE,4.6,-,0.00,,Partly Cloudy,110,2013-06-05 01:52:00
9:52 PM,62.1,55.0,78,30.04,10.0,ESE,4.6,-,N/A,,Mostly Cloudy,110,2013-06-05 02:52:00
10:52 PM,62.1,55.9,80,30.06,10.0,ESE,3.5,-,N/A,,Mostly Cloudy,110,2013-06-05 03:52:00
11:52 PM,61.0,55.0,81,30.05,10.0,ESE,4.6,-,N/A,,Mostly Cloudy,110,2013-06-05 04:52:00